127  
ASUS41 KCLE 221612  
RWRCLE  
OHIO REGIONAL WEATHER ROUNDUP  
NATIONAL WEATHER SERVICE WILMINGTON, OH  
1200 PM EDT THU JUN 22 2017  
 
NOTE: "FAIR" INDICATES FEW OR NO CLOUDS BELOW 12,000 FEET WITH NO  
SIGNIFICANT WEATHER AND/OR S TO VISIBILITY
.  
 
OHZ001>008-015>018-024>027-034-035-043-044-221700-  
NORTHWEST OHIO  
 
CITY SKY/WX TMP DP RH WIND PRES REMARKS
 
DEFIANCE LGT RAIN 74 68 81 SW5 29.96R  
FINDLAY CLOUDY 80 66 62 SW8 29.96S  
TOLEDO EXPRESS PTSUNNY 75 70 84 SW8 29.94R  
TOLEDO EXEC PTSUNNY 78 70 76 SW12 29.96R  
LIMA FAIR 81 70 69 SW12 29.97S  

 
 
OHZ009>014-019>023-028>033-038-089-221700-  
NORTHEAST OHIO  
 
CITY SKY/WX TMP DP RH WIND PRES REMARKS
 
CLE-HOPKINS PTSUNNY 82 67 60 SW13 29.98S  
CLE-LAKEFRONT PTSUNNY 80 67 64 SW10 29.94S  
CUY CO. ARPT CLOUDY 81 70 69 SW8 29.97S  
LORAIN-ELYRIA CLOUDY 78 63 59 W8 29.98R  
ASHTABULA FAIR 72 67 84 S7 29.98F  
AKRON-CANTON PTSUNNY 83 66 56 W8 30.01R  
WOOSTER FAIR 81 67 62 W6 30.01R  
MANSFIELD CLOUDY 77 68 73 SW7 30.02R  
YOUNGSTOWN CLOUDY 79 68 69 SW3 29.99F  

 
 
OHZ042-051>053-060>062-070>072-077>081-221700-  
SOUTHWEST OHIO  
 
CITY SKY/WX TMP DP RH WIND PRES REMARKS
 
CINC-COVINGTON PTSUNNY 78 70 76 S8 30.03F  
CINC-LUNKEN FAIR 79 72 79 S9 30.02F  
HAMILTON FAIR 81 71 71 SW7 30.02F  
DAYTON PTSUNNY 80 69 69 S16 30.01F  
WRIGHT-PAT AFB PTSUNNY 82 71 70 S17 29.99F  
DAYTON GENERAL FAIR 81 69 67 SW14 30.01F  
WILMINGTON FAIR 78 71 79 SW15 30.03S  

 
 
OHZ036-037-039>041-045>050-054>059-063>069-073>076-082>088-221700-  
CENTRAL AND SOUTHEAST OHIO  
 
CITY SKY/WX TMP DP RH WIND PRES REMARKS
 
COLUMBUS CLOUDY 84 69 60 SW10 30.00F  
OSU AIRPORT FAIR 85 70 60 SW14 30.00F  
BOLTON FIELD SUNNY 82 70 65 SW15 30.02F  
RICKENBACK AFB FAIR 82 70 66 SW8G16 30.01F  
NEWARK FAIR 85 67 54 SW10 30.01S  
MARION FAIR 82 69 64 SW15 30.00S  
LANCASTER FAIR 82 69 64 SW7 30.03S  
ZANESVILLE FAIR 82 68 62 SW10 30.03S  
NEW PHILLY FAIR 84 70 62 SW9 30.02S  

 
 
 
CLICK HERE TO GO TO PREVIOUS BULLETINS.

The Nexlab OH Page
The Nexlab PA Page Main Text Page